TimeCDT,TemperatureF,Dew PointF,Humidity,Sea Level PressureIn,VisibilityMPH,Wind Direction,Wind SpeedMPH,Gust SpeedMPH,PrecipitationIn,Events,Conditions,WindDirDegrees,DateUTC
12:00 AM,59.0,55.4,88,29.70,10.0,South,8.1,-,N/A,,Overcast,190,2013-04-08 05:00:00
12:53 AM,60.1,55.9,86,29.68,10.0,SSW,16.1,20.7,N/A,,Overcast,210,2013-04-08 05:53:00
1:06 AM,60.8,55.4,82,29.70,6.0,SW,16.1,-,0.05,Rain-Thunderstorm,Light Rain,220,2013-04-08 06:06:00
1:28 AM,57.2,53.6,88,29.72,1.2,WNW,13.8,23.0,0.35,Rain-Thunderstorm,Rain,300,2013-04-08 06:28:00
1:31 AM,55.4,53.6,94,29.72,0.8,WSW,16.1,24.2,0.48,Rain-Thunderstorm,Heavy Thunderstorms and Rain,250,2013-04-08 06:31:00
1:33 AM,55.4,53.6,94,29.73,0.8,WSW,19.6,28.8,0.54,Rain-Thunderstorm,Heavy Thunderstorms and Rain,250,2013-04-08 06:33:00
1:38 AM,55.4,53.6,94,29.71,1.0,SW,19.6,28.8,0.67,Rain-Thunderstorm,Heavy Thunderstorms and Rain,220,2013-04-08 06:38:00
1:45 AM,53.6,51.8,94,29.71,4.0,SW,12.7,23.0,0.67,Rain-Thunderstorm,Light Thunderstorms and Rain,230,2013-04-08 06:45:00
1:53 AM,55.0,51.1,86,29.70,10.0,WSW,15.0,20.7,0.67,Thunderstorm,Thunderstorm,250,2013-04-08 06:53:00
2:12 AM,55.4,53.6,94,29.72,10.0,WSW,8.1,-,N/A,,Overcast,240,2013-04-08 07:12:00
2:53 AM,57.0,54.0,89,29.69,10.0,SW,9.2,-,N/A,,Overcast,230,2013-04-08 07:53:00
3:53 AM,57.0,55.0,93,29.68,10.0,Calm,Calm,-,N/A,,Overcast,0,2013-04-08 08:53:00
4:53 AM,59.0,55.9,90,29.67,10.0,Calm,Calm,-,N/A,,Overcast,0,2013-04-08 09:53:00
5:04 AM,59.0,55.4,88,29.69,9.0,SSW,3.5,-,N/A,,Overcast,200,2013-04-08 10:04:00
5:53 AM,57.9,55.9,93,29.68,9.0,South,3.5,-,N/A,,Mostly Cloudy,180,2013-04-08 10:53:00
6:53 AM,59.0,55.9,90,29.70,8.0,South,5.8,-,N/A,,Overcast,180,2013-04-08 11:53:00
7:53 AM,60.1,55.9,86,29.72,8.0,SSW,6.9,-,N/A,,Mostly Cloudy,200,2013-04-08 12:53:00
8:53 AM,61.0,57.0,87,29.73,10.0,SSW,4.6,-,N/A,,Clear,200,2013-04-08 13:53:00
9:53 AM,64.0,57.9,80,29.71,10.0,SSW,11.5,-,N/A,,Clear,200,2013-04-08 14:53:00
10:53 AM,66.0,57.9,75,29.72,10.0,South,11.5,-,N/A,,Clear,190,2013-04-08 15:53:00
11:21 AM,66.2,57.2,73,29.74,10.0,SSW,11.5,-,N/A,,Mostly Cloudy,210,2013-04-08 16:21:00
11:53 AM,68.0,59.0,73,29.73,10.0,SW,12.7,20.7,N/A,,Overcast,220,2013-04-08 16:53:00
12:04 PM,69.8,59.0,68,29.74,10.0,SW,12.7,-,N/A,,Overcast,220,2013-04-08 17:04:00
12:35 PM,69.8,60.8,73,29.74,10.0,WSW,8.1,-,N/A,,Mostly Cloudy,240,2013-04-08 17:35:00
12:53 PM,70.0,59.0,68,29.73,10.0,SW,6.9,-,N/A,,Overcast,230,2013-04-08 17:53:00
1:53 PM,70.0,59.0,68,29.73,10.0,South,11.5,-,N/A,,Overcast,190,2013-04-08 18:53:00
2:53 PM,71.1,60.1,68,29.72,10.0,South,9.2,-,N/A,,Overcast,170,2013-04-08 19:53:00
3:19 PM,71.6,60.8,69,29.71,10.0,South,10.4,-,N/A,,Mostly Cloudy,180,2013-04-08 20:19:00
3:53 PM,71.1,59.0,66,29.70,10.0,South,9.2,-,N/A,,Mostly Cloudy,180,2013-04-08 20:53:00
4:53 PM,71.1,59.0,66,29.69,10.0,SSE,8.1,-,N/A,,Overcast,150,2013-04-08 21:53:00
5:27 PM,69.8,59.0,68,29.70,10.0,SSE,9.2,-,N/A,,Overcast,160,2013-04-08 22:27:00
5:38 PM,69.8,59.0,68,29.71,10.0,South,11.5,-,N/A,,Overcast,170,2013-04-08 22:38:00
5:53 PM,70.0,57.9,65,29.69,10.0,South,11.5,20.7,N/A,,Overcast,170,2013-04-08 22:53:00
6:53 PM,69.1,59.0,70,29.69,10.0,SSE,9.2,-,N/A,,Overcast,160,2013-04-08 23:53:00
7:53 PM,69.1,59.0,70,29.70,10.0,SE,4.6,-,N/A,,Overcast,130,2013-04-09 00:53:00
8:53 PM,66.9,59.0,76,29.72,10.0,ESE,5.8,-,N/A,,Overcast,120,2013-04-09 01:53:00
9:53 PM,68.0,57.9,70,29.74,10.0,South,10.4,-,N/A,,Overcast,170,2013-04-09 02:53:00
10:53 PM,66.9,57.0,70,29.74,10.0,SSE,10.4,16.1,N/A,,Overcast,160,2013-04-09 03:53:00
11:53 PM,66.9,57.0,70,29.73,10.0,SSE,9.2,16.1,N/A,,Overcast,150,2013-04-09 04:53:00